Location: 5810 Zion Rd, Cleves, OH 45002, USA
(39.1922°N, 84.7113°W)
Time: 09:19:38
(UTC-05:00)

Courier 1B Rocket - Pass Details

Date: 14 December 2019
Orbit: 920 x 1202 km, 28.2° (Epoch: 28 January)

Event Time Altitude Azimuth Distance (km) Brightness Sun altitude
Rises 04:25:00 0° 221° (SW) 4,014 - -38.9°
Reaches altitude 10° 04:28:39 10° 205° (SSW) 3,012 - -38.1°
Exits shadow 04:33:19 20° 166° (SSE) 2,274 7.0 -37.2°
Maximum altitude 04:33:50 21° 161° (SSE) 2,260 7.0 -37.1°
Drops below altitude 10° 04:38:48 10° 116° (ESE) 2,871 8.1 -36.2°
Sets 04:42:10 0° 100° (E) 3,773 9.1 -35.5°
